Hourly Data Report for April 08, 2018

KENORA A
ONTARIO
Current Station Operator: NAVCAN

49°47'18.000" N
94°21'47.000" W
409.70 m
6034076
71850
YQK

Download Data

Hourly Data (April 2018)
Hourly Data Report for April 8, 2018
TIME
LST
Temp Definition
°C
Dew Point Definition
°C
Rel Hum Definition
%
Precip. Amount Definition
mm

Wind Dir Definition
10's deg

Wind Spd Definition
km/h
Visibility Definition
km
Stn Press Definition
kPa
Hmdx Definition


Wind Chill Definition


Weather Definition


00:00 -11.1 -20.1 48   34 12 24.1 96.92   -17 Clear
01:00 -12.2 -20.6 50   36 8 24.1 96.90   -17 LegendNANA
02:00 -12.6 -21.3 49   2 6 24.1 96.90   -17 LegendNANA
03:00 -13.3 -22.1 48   2 9 24.1 96.87   -19 Clear
04:00 -13.9 -22.1 51   36 9 24.1 96.86   -20 LegendNANA
05:00 -14.9 -22.1 54   36 8 24.1 96.88   -20 LegendNANA
06:00 -14.9 -22.2 54   4 8 24.1 96.88   -20 Mainly Clear
07:00 -13.2 -21.7 50   6 5 24.1 96.93   -17 LegendNANA
08:00 -11.1 -19.2 52   14 3 24.1 96.98   -13 LegendNANA
09:00 -8.2 -19.5 40   25 5 24.1 96.98   -11 Mainly Clear
10:00 -6.5 -18.5 38   25 4 24.1 96.94   -8 LegendNANA
11:00 -5.4 -20.6 30   29 5 24.1 96.91   -8 LegendNANA
12:00 -4.4 -19.4 30   36 2 24.1 96.89   -5 Mainly Clear
13:00 -3.8 -18.4 32   22 12 24.1 96.89   -8 LegendNANA
14:00 -2.6 -16.8 33   23 8 24.1 96.86   -6 LegendNANA
15:00 -2.3 -18.3 29   12 4 24.1 96.84   -4 Mainly Clear
16:00 -1.4 -17.6 28   26 7 24.1 96.85   -4 LegendNANA
17:00 -1.8 -17.4 30   26 15 24.1 96.89   -7 LegendNANA
18:00 -2.6 -16.2 35   23 8 24.1 96.92   -6 Mainly Clear
19:00 -3.4 -16.6 36   23 8 24.1 96.93   -7 LegendNANA
20:00 -3.6 -20.1 27   25 7 24.1 96.95   -7 LegendNANA
21:00 -4.0 -18.6 32   29 7 24.1 96.99   -7 Mostly Cloudy
22:00 -3.9 -21.0 26   32 11 24.1 96.99   -8 LegendNANA
23:00 -6.0 -18.6 37   32 13 24.1 97.02   -11 LegendNANA

Notes on Data Quality.

Legend

  • E = Estimated
  • M = Missing
  • NA = Not Available*
  • [empty] = Indicates an unobserved value
Date modified: